Location: Christchurch
(43.5330°S, 172.6330°E)
Time: 17:55:40
(UTC+13:00)

Terra - Pass Details

Date: 24 January 2019
Orbit: 701 x 703 km, 98.2° (Epoch: 16 February)

Event Time Altitude Azimuth Distance (km) Brightness Sun altitude
Rises 23:10:56 0° 151° (SSE) 3,132 5.5 -18.4°
Reaches altitude 10° 23:13:57 10° 131° (SE) 2,204 4.4 -18.7°
Enters shadow 23:16:51 18° 94° (E) 1,733 3.5 -19.0°
